Volver al catálogo

SL-14 DEB

ActivoPO
NORAD 45350·DEBRIS·🇷🇺 Russia

Lanzado Aug 15, 1991 desde Plesetsk Cosmodrome

Loading…

Próximos Pases (próximas 24 horas)

TLE

ActualizadoSource: Space-Track

Época: Sep 11, 2026, 22:17 UTC

1 45350U 91056CJ  26254.92881767  .00000392  00000-0  90533-3 0  9992
2 45350  82.5839  73.5532 0033797  86.2043 274.2946 13.22537362317280

Sigue SL-14 DEB en tiempo real con AllMySat

Download on the App Store